Regional Weather Roundup
Issued by NWS

Home | Current Version | Previous Version | Text Only | Print | Product List | Glossary Off
Versions: 1 2 3 4 5 6 7 8 9 10 11 12 13 14 15 16 17 18 19 20 21 22 23 24 25 26 27 28 29 30 31 32 33 34 35 36 37 38 39 40 41 42 43 44 45 46 47 48 49 50

000
ASUS44 KMEG 240110
RWRTN
TENNESSEE HOURLY STATE WEATHER ROUNDUP
NATIONAL WEATHER SERVICE MEMPHIS TN
700 PM CST THU NOV 23 2017

TNZ002-004-019-021-049-052-054-088>092-240200-
WEST TENNESSEE

CITY           SKY/WX    TMP DP  RH WIND       PRES   REMARKS
MEMPHIS INTL   PTCLDY    44  29  55 S3        30.04F
NWS MEMPHIS      N/A     41 N/A N/A MISG        N/A
JACKSON        CLEAR     37  26  64 SW3       30.05S
DYERSBURG      CLEAR     41  25  53 CALM      30.05S
SOMERVILLE     CLEAR     39  27  60 CALM      30.03S
COVINGTON      CLEAR     37  30  75 N5        30.06R WCI  34
UNION CITY     CLEAR     43  25  49 CALM      30.03S
BOLIVAR        CLEAR     37  25  60 CALM      30.03S
PARIS          CLEAR     37  27  65 CALM      30.03R
HUNTINGDON     CLEAR     37  28  70 CALM      30.03R
LEXINGTON      CLEAR     39  25  56 CALM      30.03F
SELMER         CLEAR     37  25  60 CALM      30.03F
SAVANNAH       CLEAR     36  28  75 CALM      30.04S
$$

TNZ008-025-027-028-033-062-065-066-240200-
NORTH MIDDLE TENNESSEE

CITY           SKY/WX    TMP DP  RH WIND       PRES   REMARKS
NASHVILLE      CLEAR     41  25  53 S6        30.04S
PORTLAND       CLEAR     36  25  64 CALM      30.03S
CLARKSVILLE    CLEAR     40  21  46 CALM      30.02F
SMYRNA         CLEAR     35  27  72 CALM      30.06S
COOKEVILLE     CLEAR     32  25  74 CALM      30.03S
GALLATIN       CLEAR     37  28  70 CALM      30.06F
CROSSVILLE     CLEAR     40  25  55 CALM      30.03R
$$

TNZ061-075-076-078-094-096-097-240200-
SOUTH MIDDLE TENNESSEE

CITY           SKY/WX    TMP DP  RH WIND       PRES   REMARKS
FAYETTEVILLE   CLEAR     45  19  36 N6        30.02S
TULLAHOMA      CLEAR     37  27  65 CALM      30.03R
WINCHESTER     CLEAR     36  30  80 CALM      30.04S
MCMINNVILLE    CLEAR     37  27  65 CALM      30.03S
COLUMBIA       CLEAR     37  25  60 CALM      30.02S
SHELBYVILLE    CLEAR     34  28  80 CALM      30.04S
$$

TNZ017-018-042-046-047-240200-
NORTHEAST TENNESSEE

CITY           SKY/WX    TMP DP  RH WIND       PRES   REMARKS
TRI CITIES     CLEAR     37  32  82 CALM      30.03R
ELIZABETHTON   PTCLDY    36  32  87 CALM      30.03S
$$

TNZ012-013-036-069-073-074-240200-
CENTRAL EAST TENNESSEE

CITY           SKY/WX    TMP DP  RH WIND       PRES   REMARKS
KNOXVILLE      CLEAR     46  34  62 CALM      30.02S
OAK RIDGE      CLEAR     40  34  79 CALM      30.05R
DOWNTOWN KNOXV   N/A     41  37  87 CALM      30.04S
GATLINBURG     PTCLDY    41  32  70 CALM      30.03S
MORRISTOWN     PTCLDY    43  32  65 CALM      30.03R
JACKSBORO      CLEAR     37  32  81 CALM      30.07S
$$

TNZ083-085-099-240200-
SOUTHEAST TENNESSEE

CITY           SKY/WX    TMP DP  RH WIND       PRES   REMARKS
CHATTANOOGA    CLEAR     43  36  76 CALM      30.03S
DAYTON         MOCLDY    39  36  87 CALM      30.03R
$$

SKY/WX REPORTED AS FAIR MEANS FEW OR NO CLOUDS BELOW
12 THOUSAND FEET.




USA.gov is the U.S. government's official web portal to all federal, state and local government web resources and services.